Regional Weather Roundup
Issued by NWS

Home | Current Version | Previous Version | Graphics & Text | Print | Product List | Glossary On
Versions: 1 2 3 4 5 6 7 8 9 10 11 12 13 14 15 16 17 18 19 20 21 22 23 24 25 26 27
000
ASUS45 KBOU 261407
RWRCO

WEATHER ROUNDUP FOR COLORADO
NATIONAL WEATHER SERVICE DENVER/BOULDER CO
800 AM MDT FRI AUG 26 2016

NOTE: "FAIR" INDICATES FEW OR NO CLOUDS BELOW 12000 FEET WITH NO
SIGNIFICANT WEATHER AND/OR OBSTRUCTIONS TO VISIBILITY.

COZ001>005-013-030-031-261500-
...NORTHWEST COLORADO...

CITY           SKY/WX    TMP DP  RH WIND       PRES   REMARKS
CRAIG          FAIR      49  40  71 CALM      30.24S
HAYDEN         FAIR      48  36  61 E9        30.26S
MEEKER         FAIR      48  40  73 CALM      30.26R
MOUNT WERNER   NOT AVBL
STEAMBOAT SPGS FAIR      45  38  76 CALM      30.28S
WALDEN         FAIR      41  34  75 SE6       30.34R
$$

COZ006>008-011-261500-
...WEST CENTRAL VALLEYS...

CITY           SKY/WX    TMP DP  RH WIND       PRES   REMARKS
GRAND JUNCTION FAIR      58  48  69 E10       30.21R
MONTROSE       FAIR      51  47  86 SE5       30.28R
EAGLE          MOSUNNY   46  45  93 CALM      30.33R
RIFLE          FAIR      49  49 100 CALM      30.26R
DELTA          NOT AVBL
NUCLA          FAIR     N/A N/A N/A E7        30.29S
$$

COZ017>023-064>068-261500-
...SOUTHWEST COLORADO...

CITY           SKY/WX    TMP DP  RH WIND       PRES   REMARKS
DURANGO        CLOUDY    52  47  83 CALM      30.31R
CORTEZ         FAIR      51  49  92 CALM      30.27R
PAGOSA SPRINGS LGT RAIN  50  47  92 CALM      30.35R
TELLURIDE      FAIR      44  43  95 SE3       30.42R
WOLF CREEK PAS DRZL/FOG  34  34 100 SW16G22   30.53R VSB<1/4 WCI  23
$$

COZ009-010-012-014-032>034-037-058>063-261500-
...CENTRAL COLORADO...

CITY           SKY/WX    TMP DP  RH WIND       PRES   REMARKS
ASPEN          FAIR      44  42  93 CALM      30.33R
BUENA VISTA    FAIR      47  43  87 CALM      30.33S
COPPER MTN     CLOUDY    37  34  87 NW10G17   30.50R FOG
BERTHOUD PASS  HAZE      30  18  59 NW18G25   30.50R VSB<1/4 WCI  18
COTTONWOOD PAS FAIR      46  37  71 NW3       30.40R
GUNNISON       FAIR      46  43  87 CALM      30.38R
KREMMLING      PTSUNNY   41  37  87 CALM      30.34R
LEADVILLE      CLOUDY    39  36  89 N3        30.40R
MONARCH PASS   FOG       34  32  93 SW16      30.59R VSB<1/4 WCI  23
SALIDA         CLOUDY    50  45  85 N7        30.39R
SUNLIGHT       FAIR      39  37  93 NE7       30.48S
WILKERSON PASS FAIR      36  34  93 W9        30.47S
$$

COZ069>075-261500-
...SAN LUIS VALLEY/SANGRE DE CRISTO MOUNTAINS...

CITY           SKY/WX    TMP DP  RH WIND       PRES   REMARKS
ALAMOSA        PTSUNNY   47  45  93 CALM      30.32R
LA VETA PASS   FOG       41  39  93 S6        30.40R VSB 1/2
SAGUACHE       CLOUDY    46  41  81 NW13      30.34R
$$

COZ035-036-038>040-261500-
...NORTHERN COLORADO FRONT RANGE...

CITY           SKY/WX    TMP DP  RH WIND       PRES   REMARKS
DENVER INTL AP PTSUNNY   55  49  80 W6        30.17R
DMNS CITY PARK   N/A     57  51  80 NW3G9     30.18R
AURORA         PTSUNNY   54  50  85 NW1       30.18S
FRONT RANGE AP PTSUNNY   57  50  77 S3        30.18R
ERIE MUNI ARPT FAIR      54  52  91 N5        30.17R FOG
BOULDER MUN AP NOT AVBL
CENTENNIAL     PTSUNNY   55  47  74 W3        30.19R
BROOMFIELD     PTSUNNY   55  50  82 N9        30.19
FORT COLLINS   FAIR      55  52  88 N10       30.18R
LONGMONT       PTSUNNY   59  53  80 NE3       30.20R
$$

COZ041-046-047-076>085-087-088-261500-
...PIKES PEAK/PALMER DIVIDE AND SOUTHERN FOOTHILLS...

CITY           SKY/WX    TMP DP  RH WIND       PRES   REMARKS
COLO. SPRINGS  PTSUNNY   53  49  86 SE6       30.22S
A. F. ACADEMY  MOSUNNY   48  48  98 N8        30.23R
SCHRIEVER AFB  NOT AVBL
ELLICOTT       NOT AVBL
FALCON         CLOUDY    51  49  93 W3        30.26R
FORT CARSON    FAIR      53  50  90 N5        30.20S
LIMON          CLOUDY    56  54  93 S9        30.20R
MONUMENT HILL  CLOUDY    50  45  81 SW9       30.25S
TRINIDAD       CLOUDY    58  50  75 SW16G22   30.19F
$$

COZ042>045-048>051-090-091-261500-
...NORTHEAST COLORADO...

CITY           SKY/WX    TMP DP  RH WIND       PRES   REMARKS
GREELEY ARPT   PTSUNNY   54  52  94 N8        30.17R
AKRON          PTSUNNY   58  53  84 S13       30.17S
BURLINGTON     CLOUDY    60  53  77 SE14      30.18S
WRAY           NOT AVBL
STERLING       PTSUNNY   61  54  77 S10G16    30.13S
HOLYOKE        NOT AVBL
FORT MORGAN    DRIZZLE   56  55  93 SE6       30.16S
$$

COZ086-089-092>099-261500-
...SOUTHEAST COLORADO...

CITY           SKY/WX    TMP DP  RH WIND       PRES   REMARKS
PUEBLO         CLOUDY    59  53  80 CALM      30.15F
LA JUNTA       PTSUNNY   61  59  93 E8        30.15R FOG
LAMAR          FAIR      61  58  90 E8        30.13S FOG
SPRINGFIELD      N/A     61  60  97 SE7       30.16S
$$




USA.gov is the U.S. government's official web portal to all federal, state and local government web resources and services.